TimeCET,TemperatureF,Dew PointF,Humidity,Sea Level PressureIn,VisibilityMPH,Wind Direction,Wind SpeedMPH,Gust SpeedMPH,PrecipitationIn,Events,Conditions,WindDirDegrees,DateUTC
12:00 AM,44,41,86,29.91,9,SW,15.7,,,,Unknown,220,2013-12-22 23:00:00
12:25 AM,44.6,41.0,87,29.92,6.2,SW,13.8,-,N/A,,Unknown,230,2013-12-22 23:25:00
12:55 AM,44.6,39.2,81,29.92,6.2,SW,12.7,-,N/A,,Partly Cloudy,230,2013-12-22 23:55:00
1:00 AM,43,38,78,29.94,11,SW,11.2,,,,Partly Cloudy,230,2013-12-23 00:00:00
1:25 AM,42.8,39.2,87,29.92,6.2,SW,12.7,-,N/A,,Scattered Clouds,230,2013-12-23 00:25:00
1:55 AM,44.6,39.2,81,29.92,6.2,SW,13.8,-,N/A,,Scattered Clouds,230,2013-12-23 00:55:00
2:00 AM,44,38,74,29.94,11,SW,13.4,,,,Partly Cloudy,230,2013-12-23 01:00:00
2:25 AM,44.6,39.2,81,29.92,6.2,SW,12.7,-,N/A,,Scattered Clouds,230,2013-12-23 01:25:00
2:55 AM,44.6,39.2,81,29.95,6.2,SW,15.0,-,N/A,,Scattered Clouds,220,2013-12-23 01:55:00
3:00 AM,43,39,82,29.96,8,SW,15.7,,,Rain,Light Rain Showers,220,2013-12-23 02:00:00
3:25 AM,42.8,39.2,87,29.95,6.2,SW,15.0,-,N/A,,Unknown,230,2013-12-23 02:25:00
3:55 AM,42.8,39.2,87,29.95,6.2,SW,12.7,-,N/A,,Partly Cloudy,220,2013-12-23 02:55:00
4:00 AM,43,39,81,29.96,10,SW,13.4,,,Rain,Rain,230,2013-12-23 03:00:00
4:25 AM,42.8,39.2,87,29.95,6.2,SW,12.7,-,N/A,,Unknown,230,2013-12-23 03:25:00
4:55 AM,42.8,39.2,87,29.95,6.2,SSW,12.7,-,N/A,,Unknown,210,2013-12-23 03:55:00
5:00 AM,43,39,81,29.96,12,SSW,11.2,,,,Partly Cloudy,210,2013-12-23 04:00:00
5:25 AM,42.8,39.2,87,29.95,6.2,SSW,13.8,-,N/A,,Unknown,210,2013-12-23 04:25:00
5:55 AM,42.8,37.4,81,29.95,6.2,SSW,15.0,-,N/A,,Unknown,210,2013-12-23 04:55:00
6:00 AM,42,38,80,29.95,11,SSW,13.4,,,,Partly Cloudy,200,2013-12-23 05:00:00
6:25 AM,42.8,39.2,87,29.92,6.2,SSW,13.8,-,N/A,,Unknown,200,2013-12-23 05:25:00
6:55 AM,42.8,39.2,87,29.92,6.2,SSW,13.8,-,N/A,,Light Drizzle,200,2013-12-23 05:55:00
7:00 AM,43,39,82,29.94,13,SSW,13.4,,,Rain,Drizzle,200,2013-12-23 06:00:00
7:25 AM,42.8,39.2,87,29.92,6.2,SSW,13.8,-,N/A,,Partly Cloudy,200,2013-12-23 06:25:00
7:55 AM,42.8,39.2,87,29.92,6.2,SSW,13.8,-,N/A,,Unknown,200,2013-12-23 06:55:00
8:00 AM,43,40,83,29.92,16,SSW,13.4,,,,Partly Cloudy,200,2013-12-23 07:00:00
8:25 AM,42.8,39.2,87,29.89,6.2,South,12.7,-,N/A,,Partly Cloudy,190,2013-12-23 07:25:00
8:55 AM,42.8,39.2,87,29.89,6.2,South,13.8,-,N/A,,Partly Cloudy,190,2013-12-23 07:55:00
9:00 AM,42,39,86,29.91,13,South,13.4,,,,Scattered Clouds,190,2013-12-23 08:00:00
9:25 AM,42.8,39.2,87,29.89,6.2,South,15.0,-,N/A,,Unknown,190,2013-12-23 08:25:00
9:55 AM,42.8,39.2,87,29.89,6.2,South,16.1,-,N/A,,Unknown,190,2013-12-23 08:55:00
10:00 AM,43,40,83,29.89,14,South,15.7,,,,Scattered Clouds,190,2013-12-23 09:00:00
10:25 AM,42.8,39.2,87,29.89,6.2,South,16.1,-,N/A,,Partly Cloudy,190,2013-12-23 09:25:00
10:55 AM,44.6,39.2,81,29.86,6.2,South,17.3,-,N/A,,Partly Cloudy,190,2013-12-23 09:55:00
11:00 AM,44,40,80,29.87,14,South,15.7,,,,Scattered Clouds,190,2013-12-23 10:00:00
11:25 AM,44.6,41.0,87,29.83,6.2,South,17.3,-,N/A,,Unknown,190,2013-12-23 10:25:00
11:55 AM,44.6,41.0,87,29.83,6.2,South,18.4,-,N/A,,Unknown,180,2013-12-23 10:55:00
12:00 PM,45,40,78,29.83,14,South,17.9,,,,Mostly Cloudy,190,2013-12-23 11:00:00
12:25 PM,46.4,41.0,81,29.80,6.2,South,18.4,29.9,N/A,,Scattered Clouds,180,2013-12-23 11:25:00
12:55 PM,46.4,41.0,81,29.77,6.2,South,20.7,-,N/A,,Overcast,180,2013-12-23 11:55:00
1:00 PM,47,42,76,29.78,14,South,20.1,,,,Partly Cloudy,180,2013-12-23 12:00:00
1:25 PM,46.4,41.0,81,29.74,6.2,South,20.7,-,N/A,,Mostly Cloudy,180,2013-12-23 12:25:00
1:55 PM,46.4,42.8,87,29.71,6.2,South,20.7,-,N/A,,Overcast,180,2013-12-23 12:55:00
2:00 PM,47,42,78,29.72,13,South,20.1,,,,Overcast,180,2013-12-23 13:00:00
2:25 PM,48.2,42.8,82,29.68,6.2,South,19.6,-,N/A,,Mostly Cloudy,180,2013-12-23 13:25:00
2:55 PM,48.2,42.8,82,29.65,6.2,South,19.6,31.1,N/A,,Overcast,180,2013-12-23 13:55:00
3:00 PM,49,43,73,29.66,12,South,20.1,,,,Overcast,180,2013-12-23 14:00:00
3:25 PM,50.0,42.8,76,29.62,6.2,South,20.7,33.4,N/A,,Partly Cloudy,180,2013-12-23 14:25:00
3:55 PM,50.0,42.8,76,29.62,6.2,South,23.0,-,N/A,,Partly Cloudy,180,2013-12-23 14:55:00
4:00 PM,50,43,70,29.61,19,South,24.6,,,,Overcast,180,2013-12-23 15:00:00
4:25 PM,50.0,44.6,82,29.59,6.2,South,24.2,-,N/A,Rain,Light Rain,180,2013-12-23 15:25:00
4:55 PM,50.0,44.6,82,29.56,6.2,South,25.3,36.8,N/A,,Scattered Clouds,180,2013-12-23 15:55:00
5:00 PM,50,44,73,29.55,14,South,24.6,,,Rain,Light Drizzle,180,2013-12-23 16:00:00
5:25 PM,50.0,44.6,82,29.53,6.2,South,25.3,38.0,N/A,,Light Drizzle,180,2013-12-23 16:25:00
5:55 PM,50.0,44.6,82,29.50,6.2,South,27.6,40.3,N/A,Rain,Light Rain,190,2013-12-23 16:55:00
6:00 PM,50,45,77,29.51,5,South,26.8,,,Rain,Light Rain,190,2013-12-23 17:00:00
6:25 PM,50.0,44.6,82,29.47,6.2,South,27.6,40.3,N/A,Rain,Light Rain,180,2013-12-23 17:25:00
6:55 PM,51.8,44.6,76,29.44,6.2,South,29.9,42.6,N/A,Rain,Light Rain,180,2013-12-23 17:55:00
7:00 PM,51,45,74,29.46,6,South,26.8,,,Rain,Light Rain,190,2013-12-23 18:00:00
7:25 PM,51.8,44.6,76,29.44,6.2,South,27.6,43.7,N/A,Rain,Light Rain,190,2013-12-23 18:25:00
7:55 PM,51.8,44.6,76,29.42,6.2,South,29.9,44.9,N/A,Rain,Drizzle,190,2013-12-23 18:55:00
8:00 PM,51,45,73,29.42,7,South,29.1,,,Rain,Drizzle,190,2013-12-23 19:00:00
8:25 PM,51.8,44.6,76,29.39,6.2,South,28.8,43.7,N/A,,Light Drizzle,190,2013-12-23 19:25:00
8:55 PM,51.8,44.6,76,29.39,6.2,South,33.4,51.8,N/A,,Light Drizzle,190,2013-12-23 19:55:00
9:00 PM,52,45,69,29.38,11,South,29.1,,,Rain,Light Drizzle,190,2013-12-23 20:00:00
9:25 PM,51.8,44.6,76,29.36,6.2,South,32.2,50.6,N/A,,Light Drizzle,190,2013-12-23 20:25:00
9:55 PM,51.8,44.6,76,29.33,6.2,South,31.1,48.3,N/A,Rain,Light Rain,190,2013-12-23 20:55:00
10:00 PM,51,45,72,29.35,9,South,31.3,,,Rain,Light Rain,190,2013-12-23 21:00:00
10:25 PM,51.8,44.6,76,29.33,6.2,South,29.9,48.3,N/A,Rain,Light Rain,190,2013-12-23 21:25:00
10:55 PM,51.8,44.6,76,29.33,6.2,South,31.1,44.9,N/A,,Scattered Clouds,190,2013-12-23 21:55:00
11:00 PM,52,44,68,29.33,17,South,31.3,,,Rain,Rain,190,2013-12-23 22:00:00
11:25 PM,51.8,44.6,76,29.30,6.2,South,29.9,47.2,N/A,,Overcast,190,2013-12-23 22:25:00
11:55 PM,51.8,44.6,76,29.30,6.2,South,31.1,43.7,N/A,,Light Drizzle,190,2013-12-23 22:55:00